Long Island Mac Arthur Airport Islip US
ICAO: KISP
IATA: ISP
Category: Medium
Scheduled Services: Yes

Elevation: 99 ft
TransAlt. 18000 ft.

Airport Communications:
NEW YORK APP/DEP:118
ATIS:128.45
CLNC DEL:121.85
CTAF:119.3
GND:135.3
GUARD OPS:45
NEW YORK RDO:122.6
TWR:119.3
UNICOM:122.95

KISP Zoom In..

Runways:

(A) RW 06 length 7006 ft width 150 ft
ILS 108.30 / hdg 59

(B) RW 10 length 5034 ft width 150 ft
---- / hdg 104

(C) RW 15L length 3175 ft width 75 ft
---- / hdg 149

(D) RW 15R length 5186 ft width 150 ft
---- / hdg 149

(E) RW 24 length 7006 ft width 150 ft
ILS 108.30 / hdg 239

(F) RW 28 length 5034 ft width 150 ft
---- / hdg 284

(G) RW 33L length 5186 ft width 150 ft
---- / hdg 329

(H) RW 33R length 3175 ft width 75 ft
---- / hdg 329

Location; KISP
Day. 16 / Time. 00.56 Zulu
* Altimeter: 30.23
* Temperature: 21° c. 69.8°f.
* Wind from: 130° Speed 07 kn.
Dewpoint: 18° c.
Visibility: 10 Statute Miles.
Clouds: Few 1800 ft.
Clouds: Scattered 25000 ft.

KISP 160056Z 13007KT 10SM FEW018 SCT250 21/18 A3023 RMK AO2 SLP236 T02110178

Going to: --> -->


Wind From 130°
Speed 07 kn.

 
 
jpsmedia worldairports.se 2020   terms of use